User: anonymous   Login
Location: Unspecified
(0.0000°N, 0.0000°E)
Time: 03:11:56
(UTC+01:00)
Language:

Cosmos 1933 - Orbit

View from above orbital plane
View from above orbital plane
View from above satellite
View from above satellite

Ground track
Ground track

The orbit data is extracted from the following two-line orbital elements,

1 18958U 88020A   17017.76308145 +.00000198 +00000-0 +12501-4 0  9990
2 18958 082.5284 248.9761 0013246 075.7653 284.5043 15.03125635547764
Epoch (UTC): 17 January 2017 18:18:50
Eccentricity: 0.0013246
inclination: 82.5284°
perigee height: 548 km
apogee height: 566 km
right ascension of ascending node: 248.9761°
argument of perigee: 75.7653°
revolutions per day: 15.03125635
mean anomaly at epoch: 284.5043°
orbit number at epoch: 54776

The dashed part of the orbit path shows where the satellite is in the earth's shadow,  

DLR